Volver al catálogo

FENGYUN 1C DEB

ActivoPO
NORAD 36160·DEBRIS·🇨🇳 China

Lanzado May 10, 1999 desde Taiyuan Satellite Launch Center

Loading…

Próximos Pases (próximas 24 horas)

TLE

ActualizadoSource: Space-Track

Época: Sep 14, 2026, 06:23 UTC

1 36160U 99025DSH 26257.26657492  .00000266  00000-0  14781-3 0  9992
2 36160  98.1408  79.1727 0135067  74.1673 287.4344 14.13468800639444

Sigue FENGYUN 1C DEB en tiempo real con AllMySat

Download on the App Store